Location: Unspecified
(51.0950°N, 12.9690°E)
Time: 12:10:20
(UTC+00:00)

ATLAS 3B R/B - Pass Details

Date: 22 May 2022
Orbit: 976 x 1218 km, 63.8° (Epoch: 20 June)

Event Time Altitude Azimuth Distance (km) Brightness Sun altitude
Rises 20:25:13 0° 312° (NW) 3,894 7.6 -10.3°
Reaches altitude 10° 20:27:57 10° 318° (NW) 2,972 6.6 -10.5°
Maximum altitude 20:34:50 50° 33° (NNE) 1,444 3.6 -11.2°
Drops below altitude 10° 20:42:04 10° 107° (ESE) 3,119 4.7 -11.8°
Enters shadow 20:42:59 - 109° (ESE) 3,425 4.9 -11.9°
